Watertown, WI

4:40 AM CST on February 27, 2017 (GMT -0600)
Watertown Municipal

Weather History for KRYV - May, 2013

Change the Weather History Date:

Thursday, May 9, 2013

  Actual Average Record
Temperature  
Mean Temperature 55 °F -  
Max Temperature 66 °F 68 °F 90 °F (1934)
Min Temperature 43 °F 44 °F 23 °F (1966)
Degree Days  
Heating Degree Days 10    
Growing Degree Days 5 (Base 50)    
Moisture  
Dew Point 51 °F    
Average Humidity 85    
Maximum Humidity 96    
Minimum Humidity 66    
Precipitation  
Precipitation 0.72 in - - ()
Sea Level Pressure  
Sea Level Pressure 29.92 in    
Wind  
Wind Speed 4 mph (NE)    
Max Wind Speed 16 mph    
Max Gust Speed 24 mph    
Visibility 8 miles    
Events Rain    
Averages and records for this station are not official NWS values.
T = Trace of Precipitation, MM = Missing Value Source: NWS Daily Summary

Daily Weather History Graph

Daily Weather History Graph

Search for Another Location

Airport or City:

Trip Planner

Search our weather history database for the weather conditions in past years. The results will help you decide how hot, cold, wet, or windy it might be!

Date:

Astronomy

May. 09, 2013 Rise Set
Actual Time 5:37 AM CDT 8:05 PM CDT
Civil Twilight 5:05 AM CDT 8:37 PM CDT
Nautical Twilight 4:25 AM CDT 9:17 PM CDT
Astronomical Twilight 3:40 AM CDT 10:03 PM CDT
Moon 5:22 AM CDT (5/9) 8:00 PM CDT (5/9)
Length of Visible Light 15h 32m
Length of Day
14h 28m
Waning Crescent, 0% of the Moon is Illuminated
May 9
Waning Crescent
May 9
New
May 17
First Quarter
May 24
Full
May 31
Last Quarter

Hourly Weather History & Observations

Time (CDT) Temp. Windchill Dew Point Humidity Pressure Visibility Wind Dir Wind Speed Gust Speed Precip Events Conditions
12:35 AM 53.8 °F - 47.1 °F 78% 29.95 in 10.0 mi Calm Calm - N/A   Clear
12:55 AM 53.8 °F - 46.6 °F 77% 29.95 in 10.0 mi Calm Calm - N/A   Clear
1:35 AM 53.2 °F - 46.0 °F 77% 29.94 in 10.0 mi Calm Calm - N/A   Clear
1:55 AM 53.6 °F - 46.4 °F 77% 29.94 in 10.0 mi Calm Calm - N/A   Clear
2:55 AM 54.5 °F - 47.7 °F 78% 29.95 in 10.0 mi Calm Calm - N/A   Clear
4:35 AM 54.7 °F - 46.8 °F 75% 29.94 in 10.0 mi Calm Calm - N/A   Clear
4:55 AM 53.4 °F - 47.3 °F 80% 29.94 in 10.0 mi Calm Calm - N/A   Clear
5:15 AM 52.0 °F - 47.3 °F 84% 29.95 in 10.0 mi Calm Calm - N/A   Scattered Clouds
5:35 AM 52.5 °F - 47.8 °F 84% 29.94 in 10.0 mi Calm Calm - N/A   Scattered Clouds
7:15 AM 59.0 °F - 49.6 °F 71% 29.94 in 10.0 mi Calm Calm - N/A   Mostly Cloudy
9:15 AM 62.8 °F - 51.3 °F 66% 29.96 in 10.0 mi WSW 3.5 mph - N/A Rain Light Rain
9:55 AM 61.0 °F - 54.7 °F 80% 29.93 in 10.0 mi NE 8.1 mph - 0.01 in   Overcast
10:15 AM 63.3 °F - 54.3 °F 72% 29.93 in 10.0 mi NE 4.6 mph - N/A   Overcast
10:35 AM 63.9 °F - 55.8 °F 75% 29.93 in 10.0 mi ENE 3.5 mph - N/A   Overcast
10:55 AM 66.0 °F - 55.8 °F 69% 29.94 in 10.0 mi SW 8.1 mph - N/A   Overcast
11:15 AM 66.6 °F - 55.9 °F 69% 29.95 in 10.0 mi SW 10.4 mph - N/A   Mostly Cloudy
11:35 AM 66.2 °F - 54.7 °F 66% 29.94 in 10.0 mi SW 5.8 mph - N/A   Overcast
12:15 PM 64.9 °F - 55.0 °F 70% 29.94 in 10.0 mi Calm Calm - N/A Rain Light Rain
12:35 PM 64.6 °F - 55.4 °F 72% 29.94 in 10.0 mi Calm Calm - N/A Rain Rain
12:55 PM 64.4 °F - 56.1 °F 74% 29.94 in 10.0 mi Calm Calm - 0.01 in Rain Light Rain
1:15 PM 64.4 °F - 55.9 °F 74% 29.95 in 10.0 mi West 3.5 mph - N/A Rain Light Rain
1:35 PM 63.7 °F - 55.9 °F 76% 29.94 in 10.0 mi Calm Calm - N/A Rain Light Rain
1:55 PM 63.5 °F - 55.0 °F 74% 29.94 in 10.0 mi Calm Calm - 0.01 in Rain Light Rain
3:15 PM 60.8 °F - 58.3 °F 91% 29.92 in 7.0 mi North 4.6 mph - 0.02 in Rain Light Rain
3:35 PM 60.1 °F - 56.5 °F 88% 29.92 in 5.0 mi North 6.9 mph - 0.03 in Rain Rain
3:55 PM 59.2 °F - 57.4 °F 94% 29.92 in 3.0 mi NE 3.5 mph - 0.10 in Rain Rain
4:15 PM 58.5 °F - 56.5 °F 93% 29.91 in 5.0 mi NE 6.9 mph - 0.03 in Rain Rain
4:35 PM 58.5 °F - 56.8 °F 94% 29.89 in 5.0 mi NE 9.2 mph 17.3 mph 0.04 in Rain Light Rain
4:55 PM 58.5 °F - 56.8 °F 94% 29.88 in 7.0 mi NNE 9.2 mph - 0.04 in   Light Drizzle
5:15 PM 58.8 °F - 56.8 °F 93% 29.89 in 7.0 mi NE 6.9 mph - N/A   Drizzle
5:35 PM 58.6 °F - 57.4 °F 96% 29.90 in 2.5 mi ENE 5.8 mph - 0.07 in Rain Heavy Rain
5:55 PM 55.0 °F - 53.8 °F 96% 29.90 in 3.0 mi NE 9.2 mph 16.1 mph 0.14 in Rain Rain
6:15 PM 51.8 °F - 50.7 °F 96% 29.90 in 3.0 mi ENE 11.5 mph - 0.04 in Rain Light Rain
6:35 PM 50.9 °F - 49.6 °F 95% 29.90 in 4.0 mi ENE 10.4 mph - 0.07 in Rain Light Rain
6:55 PM 50.9 °F - 49.5 °F 95% 29.90 in 3.0 mi East 12.7 mph 17.3 mph 0.08 in Rain Light Rain
7:15 PM 50.4 °F - 48.9 °F 95% 29.89 in 4.0 mi East 11.5 mph - 0.02 in Rain Light Rain
7:35 PM 50.4 °F - 48.9 °F 95% 29.90 in 5.0 mi East 11.5 mph 19.6 mph 0.03 in Rain Light Rain
7:55 PM 50.2 °F - 48.7 °F 95% 29.89 in 10.0 mi ENE 16.1 mph 19.6 mph 0.03 in Rain Light Rain
8:15 PM 50.0 °F - 48.7 °F 95% 29.90 in 7.0 mi ENE 11.5 mph 17.3 mph 0.02 in Rain Light Rain
8:35 PM 49.5 °F - 48.2 °F 95% 29.91 in 5.0 mi East 10.4 mph 19.6 mph 0.07 in Rain Light Rain
8:55 PM 49.1 °F - 47.7 °F 95% 29.91 in 5.0 mi East 6.9 mph - 0.09 in   Drizzle
9:15 PM 48.2 °F - 46.6 °F 94% 29.91 in 10.0 mi ENE 13.8 mph 24.2 mph 0.01 in Rain Light Rain
9:35 PM 48.0 °F - 46.6 °F 95% 29.91 in 7.0 mi ENE 15.0 mph 20.7 mph 0.03 in   Drizzle
9:55 PM 47.5 °F - 45.9 °F 94% 29.90 in 7.0 mi ENE 16.1 mph - 0.05 in Rain Light Rain
10:15 PM 46.6 °F - 45.0 °F 94% 29.90 in 7.0 mi ENE 15.0 mph - 0.01 in Rain Light Rain
10:55 PM 45.5 °F 39.6 °F 44.2 °F 95% 29.89 in 10.0 mi ENE 12.7 mph 23.0 mph 0.03 in Rain Rain
11:15 PM 45.5 °F 40.8 °F 44.2 °F 95% 29.89 in 10.0 mi ENE 9.2 mph 17.3 mph 0.02 in Rain Light Rain
11:35 PM 44.6 °F 38.8 °F 43.5 °F 96% 29.89 in 7.0 mi NE 11.5 mph 20.7 mph 0.07 in Rain Light Rain
11:55 PM 43.9 °F 37.2 °F 42.8 °F 96% 29.89 in 7.0 mi NE 13.8 mph 20.7 mph 0.13 in Rain Light Rain